Regional Weather Roundup
Issued by NWS

Home | Current Version | Previous Version | Graphics & Text | Print | Product List | Glossary On
Versions: 1 2 3 4 5 6 7 8 9 10 11 12 13 14 15 16 17 18 19 20 21 22 23 24 25 26 27 28 29 30 31 32 33 34 35 36 37 38 39 40 41 42 43 44 45 46 47 48 49 50
000
ASUS44 KMEG 310210
RWRTN
TENNESSEE HOURLY STATE WEATHER ROUNDUP
NATIONAL WEATHER SERVICE MEMPHIS TN
800 PM CST FRI JAN 30 2015

TNZ002-004-019-021-049-052-054-088>092-310300-
WEST TENNESSEE

CITY           SKY/WX    TMP DP  RH WIND       PRES   REMARKS
MEMPHIS INTL   PTCLDY    40  24  53 N9        30.44R WCI  34
NWS MEMPHIS      N/A     36 N/A N/A MISG        N/A
JACKSON        CLEAR     35  22  58 CALM      30.44S
DYERSBURG      CLEAR     36  16  44 N5        30.47F WCI  32
UNION CITY     CLEAR     34  21  60 N3        30.44F
PARIS          CLEAR     28  19  69 NE3       30.44F
LEXINGTON      CLEAR     36  18  48 NE5       30.42S WCI  32
SAVANNAH       CLEAR     30  21  69 CALM      30.44R
$$

TNZ008-025-027-028-033-062-065-066-310300-
NORTH MIDDLE TENNESSEE

CITY           SKY/WX    TMP DP  RH WIND       PRES   REMARKS
NASHVILLE      CLEAR     37  20  50 N5        30.45R WCI  33
CLARKSVILLE    CLEAR     32  21  64 N3        30.45S
SMYRNA         CLEAR     30  20  66 CALM      30.46R
COOKEVILLE     CLEAR     25  21  86 CALM      30.41R
CROSSVILLE     CLEAR     31  18  58 N3        30.38R
$$

TNZ061-075-076-078-094-096-097-310300-
SOUTH MIDDLE TENNESSEE

CITY           SKY/WX    TMP DP  RH WIND       PRES   REMARKS
FAYETTEVILLE   CLEAR     34  18  51 MISG      30.41S
TULLAHOMA      CLEAR     27  18  69 NW5       30.41S WCI  21
WINCHESTER     CLEAR     28  21  74 CALM      30.42R
MCMINNVILLE    CLEAR     28  21  74 CALM      30.41R
COLUMBIA       CLEAR     30  21  69 CALM      30.42R
SHELBYVILLE    CLEAR     28  23  80 CALM      30.44S
$$

TNZ017-018-042-046-047-310300-
NORTHEAST TENNESSEE

CITY           SKY/WX    TMP DP  RH WIND       PRES   REMARKS
TRI CITIES     CLEAR     29  14  53 CALM      30.37R
ELIZABETHTON   CLEAR     28  10  47 VRB5      30.34F WCI  23
$$

TNZ012-013-036-069-073-074-310300-
CENTRAL EAST TENNESSEE

CITY           SKY/WX    TMP DP  RH WIND       PRES   REMARKS
KNOXVILLE      CLEAR     34  18  52 N8        30.40R WCI  27
OAK RIDGE      CLEAR     36  18  48 CALM      30.41S
GATLINBURG     CLEAR     27  19  74 CALM      30.40R
MORRISTOWN     CLEAR     34  18  51 N9        30.39S WCI  26
$$

TNZ083-085-099-310300-
SOUTHEAST TENNESSEE

CITY           SKY/WX    TMP DP  RH WIND       PRES   REMARKS
CHATTANOOGA    PTCLDY    37  21  52 N7        30.40R WCI  32
$$

SKY/WX REPORTED AS FAIR MEANS FEW OR NO CLOUDS BELOW
12 THOUSAND FEET.



USA.gov is the U.S. government's official web portal to all federal, state and local government web resources and services.